Home > Weather > Vejle > Past weeks

Flag for Denmark Weather for the Past 2 Weeks in Vejle, Denmark

Now
41 °F

Broken clouds.


Feels Like: 38 °F
Forecast: 24 / 36 °F
Wind: 5 mph from East

Location: Billund Lufthavn

Current Time: Feb 11, 2016 at 12:46:58 PM

Latest Report: Feb 11, 2016 at 12:20 PM


Visibility: N/A

Pressure: 29.45 "Hg

Humidity: 81%

Dew point: 36 °F

Location of VejleLocation

Historic Weather in Vejle — Graph

°F

Vejle Temperature Yesterday

Maximum temperature yesterday: 43 °F (at 12:50 PM)
Minimum temperature yesterday: 36 °F (at 12:20 AM)
Average temperature yesterday: 39 °F

High & Low Weather Summary for the Past Weeks

 TemperatureHumidityPressure
High50 °F (Jan 27, 8:50 PM)100% (Jan 27, 11:20 AM)30.09 "Hg (Jan 27, 11:20 AM)
Low30 °F (Feb 1, 1:50 AM)62% (Jan 29, 5:20 PM)28.85 "Hg (Feb 8, 10:20 PM)
Average41 °F89%29.50 "Hg
* Reported Jan 27 11:20 AM — Feb 11 11:20 AM, Vejle, Weather by CustomWeather, © 2016

Note: Actual official high and low records may vary slightly from our data, if they occured in-between our weather recording intervals... More about our weather records

Advertising

Vejle Weather History for the Previous 24 Hours

 ConditionsComfort  
Time TempWeatherWind HumidityBarometerVisibility
11:20 AM
Thu, Feb 11
39 °FSprinkles. Partly sunny.5 mph93%29.45 "HgN/A
10:50 AM37 °FSprinkles. Broken clouds.2 mph100%29.45 "HgN/A
10:20 AM37 °FBroken clouds.3 mph100%29.45 "HgN/A
9:50 AM36 °FBroken clouds.1 mph100%29.42 "HgN/A
9:20 AM36 °FBroken clouds.No wind100%29.42 "Hg4 mi
8:50 AM34 °FBroken clouds.2 mph100%29.42 "Hg1 mi
8:20 AM36 °FBroken clouds.2 mph100%29.39 "Hg1 mi
7:50 AM34 °FPartly cloudy.2 mph100%29.39 "Hg1 mi
7:20 AM34 °FPassing clouds.1 mph100%29.36 "Hg1 mi
6:53 AM36 °FPassing clouds.1 mph100%29.36 "Hg1 mi
6:20 AM36 °FFog.2 mph100%29.36 "Hg1 mi
5:20 AM34 °FFog.No wind100%29.36 "Hg0 mi
4:50 AM34 °FFog.1 mph100%29.33 "Hg0 mi
4:20 AM34 °FFog.No wind100%29.33 "Hg0 mi
3:50 AM34 °FFog.No wind100%29.33 "Hg0 mi
3:20 AM34 °FFog.1 mph100%29.33 "Hg0 mi
2:50 AM34 °FOvercast.No wind100%29.30 "Hg3 mi
2:20 AM34 °FPassing clouds.1 mph100%29.30 "Hg1 mi
1:50 AM34 °FIce fog.1 mph100%29.30 "Hg0 mi
1:20 AM36 °FFog.1 mph100%29.27 "Hg0 mi
12:50 AM37 °FFog.1 mph100%29.27 "Hg1 mi
12:20 AM37 °FOvercast.1 mph100%29.27 "HgN/A
11:50 PM
Wed, Feb 10
37 °FFog.1 mph100%29.27 "Hg1 mi
10:50 PM39 °FOvercast.2 mph100%29.24 "HgN/A
10:20 PM39 °FDrizzle. Overcast.1 mph93%29.24 "HgN/A
9:50 PM39 °FSprinkles. Mostly cloudy.No wind93%29.24 "Hg4 mi
9:20 PM39 °FSprinkles. Overcast.1 mph93%29.21 "HgN/A
8:50 PM39 °FSprinkles. Low clouds.2 mph100%29.21 "HgN/A
8:20 PM39 °FPassing clouds.2 mph100%29.21 "HgN/A
7:50 PM39 °FPassing clouds.No wind100%29.18 "HgN/A
7:20 PM39 °FPartly cloudy.1 mph100%29.18 "Hg4 mi
6:50 PM39 °FPartly cloudy.1 mph100%29.18 "Hg4 mi
6:20 PM41 °FSprinkles. Passing clouds.1 mph93%29.18 "HgN/A
5:50 PM41 °FPassing clouds.3 mph93%29.15 "HgN/A
5:20 PM41 °FPartly cloudy.2 mph93%29.15 "HgN/A
4:50 PM41 °FPartly sunny.3 mph93%29.15 "HgN/A
4:20 PM41 °FScattered clouds.6 mph93%29.12 "HgN/A
3:50 PM43 °FScattered clouds.5 mph87%29.12 "HgN/A
3:20 PM41 °FScattered clouds.5 mph93%29.12 "HgN/A
2:50 PM41 °FScattered clouds.6 mph93%29.12 "HgN/A
2:20 PM41 °FSprinkles. Scattered clouds.10 mph87%29.12 "HgN/A
1:50 PM41 °FScattered clouds.7 mph87%29.12 "HgN/A
1:20 PM41 °FScattered clouds.8 mph87%29.09 "HgN/A
12:50 PM43 °FScattered clouds.9 mph81%29.09 "HgN/A
12:20 PM41 °FScattered clouds.5 mph87%29.09 "HgN/A
Weather by CustomWeather, © 2016

See weather overviewHow to use our weather pages